Regional Weather Roundup
Issued by NWS

Home | Current Version | Previous Version | Text Only | Print | Product List | Glossary On
Versions: 1 2 3 4 5 6 7 8 9 10 11 12 13 14 15 16 17 18 19 20 21 22 23 24 25 26 27 28 29 30 31 32 33 34 35 36 37 38 39 40 41 42 43 44 45 46 47 48 49
000
ASUS45 KBOU 010607
RWRCO

WEATHER ROUNDUP FOR COLORADO
NATIONAL WEATHER SERVICE DENVER/BOULDER CO
1100 PM MST SAT FEB 28 2015

NOTE: "FAIR" INDICATES FEW OR NO CLOUDS BELOW 12000 FEET WITH NO
SIGNIFICANT WEATHER AND/OR OBSTRUCTIONS TO VISIBILITY.

COZ001>005-013-030-031-010700-
...NORTHWEST COLORADO...

CITY           SKY/WX    TMP DP  RH WIND       PRES   REMARKS
CRAIG          LGT SNOW  29  27  92 W5        29.88R FOG     WCI  24
HAYDEN         CLOUDY    27  25  93 W3        29.86R
MEEKER         CLOUDY    29  28  96 CALM      29.87R
MOUNT WERNER   NOT AVBL
STEAMBOAT SPGS CLOUDY    26  25  96 CALM      29.84S
WALDEN         CLOUDY    18  14  86 CALM      29.84R
$$

COZ006>008-011-010700-
...WEST CENTRAL VALLEYS...

CITY           SKY/WX    TMP DP  RH WIND       PRES   REMARKS
GRAND JUNCTION MOCLDY    32  29  88 E3        29.90R
MONTROSE       LGT SNOW  33  30  88 CALM      29.95S FOG
EAGLE          MOCLDY    30  28  93 E6        29.89S WCI  24
RIFLE          MOCLDY    32  26  78 W5        29.88R WCI  27
DELTA          CLOUDY    35  33  89 CALM      29.95R
NUCLA          CLOUDY    32  32 100 E9        29.98R WCI  24
$$

COZ017>023-064>068-010700-
...SOUTHWEST COLORADO...

CITY           SKY/WX    TMP DP  RH WIND       PRES   REMARKS
DURANGO        LGT SNOW  30  29  96 NE3       29.97R FOG
CORTEZ         CLOUDY    29  27  92 CALM      29.96R
PAGOSA SPRINGS LGT SNOW  30  30 100 CALM      29.97R
TELLURIDE      LGT SNOW  28  23  84 NW5       29.96R WCI  22
WOLF CREEK PAS CLOUDY    18  18 100 SW33G44   29.93R WCI  -3
$$

COZ009-010-012-014-032>034-037-058>063-010700-
...CENTRAL COLORADO...

CITY           SKY/WX    TMP DP  RH WIND       PRES   REMARKS
ASPEN          LGT SNOW  27  25  92 SW5       29.87R VSB 1   WCI  22
BUENA VISTA    LGT SNOW  22  19  91 CALM      29.90S
COPPER MTN     FLURRIES  19  10  68 SW12G18   29.83F WCI   7
BERTHOUD PASS  SNOW      10   3  72 W7        29.83R VSB 1/2 WCI   0
COTTONWOOD PAS LGT SNOW  21  18  86 CALM      29.87R VSB 1
GUNNISON       MOCLDY    21  16  79 SW5       29.94R WCI  15
KREMMLING      MOCLDY    19  16  86 N3        29.87R
LEADVILLE      LGT SNOW  16  15  96 S6        29.85R VSB 3/4 WCI   7
SALIDA         CLOUDY    19  15  84 E6        29.98S WCI  11
SUNLIGHT       LGT SNOW  21  19  93 SW5         N/A  WCI  15
WILKERSON PASS LGT SNOW  16  12  86 SW8       29.87R VSB 1   WCI   5
$$

COZ069>075-010700-
...SAN LUIS VALLEY/SANGRE DE CRISTO MOUNTAINS...

CITY           SKY/WX    TMP DP  RH WIND       PRES   REMARKS
ALAMOSA        FLURRIES  24  21  88 NW3       29.93R
LA VETA PASS   LGT SNOW  25  23  93 S10G30    29.89S WCI  15
SAGUACHE       PTCLDY    19  16  86 N10       29.94R WCI   8
$$

COZ035-036-038>040-010700-
...NORTHERN COLORADO FRONT RANGE...

CITY           SKY/WX    TMP DP  RH WIND       PRES   REMARKS
DENVER INTL AP CLOUDY    17  10  74 SW3       30.00S
DMNS CITY PARK   N/A     19  13  77 SE3       30.00S
AURORA         MOCLDY    13   9  85 S2        29.99F
FRONT RANGE AP NOT AVBL
ERIE MUNI ARPT MOCLDY    16  14  93 CALM      30.01F
BOULDER MUN AP MOCLDY    19  19 100 CALM      30.00S FOG
CENTENNIAL     MOCLDY    15  10  80 CALM      29.97F
BROOMFIELD     MOCLDY    21  18  86 CALM      29.99S
FORT COLLINS   MOCLDY    19  12  73 E6        30.03S WCI  11
LONGMONT       MOCLDY    17  15  90 CALM      30.03F FOG
$$

COZ041-046-047-076>085-087-088-010700-
...PIKES PEAK/PALMER DIVIDE AND SOUTHERN FOOTHILLS...

CITY           SKY/WX    TMP DP  RH WIND       PRES   REMARKS
COLO. SPRINGS  LGT SNOW  15  12  88 S3        29.98R FOG
A. F. ACADEMY  MOCLDY    14  11  89 S2        29.95R
ELLICOTT       NOT AVBL
FALCON         MOCLDY    12  11  92 W8        29.95R FOG     WCI   1
FORT CARSON    MOCLDY    13  10  89 CALM      29.97S
LIMON          PTCLDY    10   6  84 SE3       30.00S
MONUMENT HILL  PTCLDY     5   3  92 W5        29.92R WCI  -4
TRINIDAD       CLOUDY    17  13  84 N3        30.01S
$$

COZ042>045-048>051-090-091-010700-
...NORTHEAST COLORADO...

CITY           SKY/WX    TMP DP  RH WIND       PRES   REMARKS
GREELEY ARPT   PTCLDY    19  12  73 E6        30.03S WCI  11
AKRON          PTCLDY    16  13  88 S5        30.03S WCI   9
BURLINGTON     CLOUDY    19  12  74 S9        30.09F WCI   8
WRAY           MOCLDY    19  14  84 SE5       30.11S WCI  12
STERLING       MOCLDY    21  18  86 S3        30.08R
HOLYOKE        NOT AVBL
FORT MORGAN    MOCLDY    18  15  88 CALM      30.07R
$$

COZ086-089-092>099-010700-
...SOUTHEAST COLORADO...

CITY           SKY/WX    TMP DP  RH WIND       PRES   REMARKS
PUEBLO         PTCLDY    15  11  83 S5        30.06R WCI   8
LA JUNTA       PTCLDY    18  12  77 CALM      30.09F
LAMAR          MOCLDY    19  17  92 CALM      30.10S
SPRINGFIELD      N/A     14  13  95 NW5       30.07R WCI   6
$$



USA.gov is the U.S. government's official web portal to all federal, state and local government web resources and services.